RH
15 14 13 11 10 9 8 8 7 7 6 6 5 5 5 4 4 3 3 3 3 3 4 4 4 4 4 3 2 2 2 3 3 4 4 4 4 3 3 3 3 5 6 8 10 12 13 14 14 14 14 14 15 15 14 14 14 14 14 15 15 15 15 15 16 16 15 15 15 16 16 17 17 17 18 20 22 23 24 25 24 24 23 24 25 27 27 25
13 12 12 10 9 8 8 7 7 6 5 5 4 4 4 3 3 3 3 4 5 5 5 6 5 5 4 3 3 3 3 3 3 3 3 3 3 3 3 5 7 9 11 13 14 15 14 14 15 14 15 15 15 15 14 14 13 14 14 14 14 13 13 12 13 13 13 12 13 14 14 15 16 16 18 20 21 22 23 23 22 23 23 25 27 26 26 25
11 10 10 9 8 8 7 6 6 5 4 4 4 3 3 3 4 4 5 6 8 8 8 7 6 4 4 3 3 3 3 3 3 3 3 3 4 5 7 10 12 14 15 15 15 15 14 14 15 14 15 15 15 15 14 13 13 12 12 12 11 11 11 10 10 10 10 10 11 12 12 13 14 15 16 18 19 20 21 21 22 24 26 28 28 27 26 24
8 8 8 8 8 7 6 5 5 4 4 3 3 3 4 5 6 7 8 10 11 11 11 9 7 5 3 3 3 3 3 4 4 4 5 7 9 11 13 15 16 16 16 15 15 15 14 14 14 14 14 14 13 13 13 12 12 11 10 10 9 9 9 8 8 8 8 9 10 10 11 12 13 13 14 16 17 18 19 20 23 25 27 29 28 26 24 21
8 8 7 7 6 5 5 4 4 4 4 4 4 5 6 7 8 10 12 13 14 14 13 11 9 7 7 6 6 7 8 9 10 11 13 14 16 17 17 17 16 16 15 14 14 14 14 14 14 14 13 13 12 12 11 11 10 9 9 8 8 8 7 7 7 7 8 8 9 9 10 11 12 12 13 14 15 16 18 21 23 25 26 26 25 23 21 19
7 7 6 6 5 5 4 4 4 4 5 6 7 7 9 10 12 14 16 17 18 17 17 16 14 13 13 13 13 14 14 15 17 17 18 19 19 18 17 16 15 15 14 14 14 14 14 14 13 13 12 12 12 11 10 9 9 8 8 8 8 8 8 8 8 7 8 8 8 9 9 10 10 12 12 13 13 15 19 21 23 25 25 23 22 21 19 18
6 6 5 5 4 4 4 5 6 6 7 8 9 10 12 15 18 20 22 23 23 22 21 20 19 18 17 18 18 18 19 19 20 20 19 19 18 16 15 14 15 15 14 14 14 13 14 14 13 13 12 12 11 10 10 9 9 8 8 8 8 8 8 8 8 8 8 8 8 8 9 10 10 11 12 13 14 17 20 22 24 25 24 23 22 21 19 18
5 5 5 5 5 6 6 7 8 8 9 11 13 16 19 22 25 26 26 26 25 24 23 22 21 20 20 20 20 19 20 20 19 18 17 17 16 15 15 14 15 14 14 14 13 13 13 13 13 12 12 11 10 10 9 9 9 8 8 8 8 8 8 8 8 8 8 8 8 9 9 10 11 12 13 14 16 18 21 23 25 25 24 24 22 21 20 18
5 5 6 7 7 8 8 9 10 12 14 17 21 24 26 27 28 27 26 25 24 23 22 22 22 21 20 20 18 18 18 18 16 16 15 15 15 15 15 14 14 14 14 13 13 13 12 12 12 12 11 10 10 10 9 9 9 8 8 8 8 8 8 8 8 8 8 8 9 10 10 11 12 13 14 16 18 19 22 24 26 26 25 24 22 21 20 19
7 8 8 8 9 9 10 12 15 19 22 26 28 29 29 28 27 26 24 23 23 23 22 22 21 19 19 18 16 15 16 15 15 15 15 16 16 16 15 14 14 13 13 13 12 12 12 11 11 11 10 10 10 9 9 9 8 8 8 8 8 8 8 8 9 9 9 9 10 10 11 12 13 15 16 18 19 20 22 25 27 27 26 25 23 22 21 19
9 9 10 10 12 15 18 21 25 28 30 31 30 28 27 25 23 22 21 21 21 22 22 20 19 17 16 15 14 14 15 15 16 16 16 16 16 15 14 13 13 13 12 12 12 12 11 10 10 10 10 9 9 8 8 8 8 8 8 8 8 8 8 8 9 9 9 10 10 11 12 13 15 16 17 19 20 21 23 26 28 28 28 27 25 23 21 20
12 14 16 19 22 25 28 31 32 32 31 29 27 25 23 22 20 19 19 19 19 19 19 17 15 14 14 14 14 15 16 17 17 18 17 16 16 15 14 13 13 13 12 12 12 11 10 10 9 9 9 7 7 7 8 8 7 7 7 7 7 7 7 8 9 9 10 10 10 11 12 13 15 16 16 18 21 22 25 27 28 30 30 28 25 23 21 20
22 24 26 28 30 32 33 33 32 30 28 26 24 23 21 20 19 18 17 17 16 16 15 15 13 14 15 15 16 17 18 18 18 18 16 15 15 14 13 13 13 12 11 11 11 10 9 8 7 8 8 6 6 7 7 7 7 7 6 6 6 7 7 7 8 9 10 10 11 12 12 13 14 15 16 18 21 23 25 27 29 32 31 27 25 24 22 20
30 31 32 33 33 33 32 30 28 27 26 25 23 21 20 19 18 17 15 14 13 14 14 14 15 16 18 18 17 18 18 17 17 16 15 14 14 13 13 13 12 12 11 10 10 9 9 7 6 7 7 5 5 6 6 6 6 6 6 6 6 6 6 6 7 8 9 10 11 12 12 12 13 14 16 18 22 24 25 27 30 32 30 27 26 24 21 20
36 35 34 33 32 30 29 27 26 25 25 23 22 21 19 18 16 14 13 13 13 14 15 17 18 19 19 18 17 17 16 16 16 15 14 14 14 13 12 12 11 11 10 9 9 8 7 6 6 7 6 4 5 5 6 6 5 6 6 6 5 5 5 5 6 7 9 9 10 11 12 12 13 15 16 20 22 24 26 28 30 30 28 27 26 23 21 21
38 36 33 31 29 27 26 25 25 24 23 22 21 19 17 15 13 13 13 14 15 17 18 20 19 20 19 17 15 15 15 15 15 14 14 13 13 13 11 11 10 9 8 8 7 7 6 5 5 5 5 4 4 4 5 5 5 5 5 5 4 4 4 5 6 7 8 9 10 11 12 13 14 15 17 20 22 24 27 28 29 28 28 27 26 23 22 22
36 33 31 30 28 26 25 24 23 22 21 19 18 16 14 13 13 14 15 16 17 18 20 20 20 19 18 15 14 15 14 14 13 13 13 13 12 11 10 9 8 6 5 5 6 5 4 4 4 4 4 3 3 3 4 4 5 4 4 3 3 3 4 5 6 6 8 9 10 11 12 13 15 16 18 20 23 25 26 27 27 26 26 26 25 23 22 24
33 31 30 29 28 26 24 22 19 18 17 16 15 15 15 15 16 16 17 18 18 19 19 20 19 18 16 14 15 14 13 12 11 11 11 11 10 9 8 7 6 5 4 4 4 3 3 4 4 4 3 3 2 3 3 3 3 3 3 3 3 4 4 5 5 6 7 8 9 11 13 14 16 17 20 22 23 24 23 23 24 24 25 25 25 24 25 27
32 31 30 29 27 25 22 19 17 16 17 17 18 19 20 20 20 19 19 19 19 19 19 19 19 18 15 15 14 13 13 11 10 10 10 9 8 6 6 5 5 5 4 3 3 3 3 3 3 3 2 2 2 2 2 2 2 2 3 3 3 4 4 5 6 6 7 9 9 11 14 15 17 19 21 22 21 21 20 20 21 22 23 24 26 27 29 32
31 30 29 28 25 22 19 18 19 19 20 22 24 24 23 22 22 21 19 20 20 19 18 18 19 17 15 15 13 13 12 10 9 9 8 7 7 6 5 5 4 4 3 3 3 2 2 3 2 2 2 2 2 2 2 2 2 2 2 3 3 4 4 5 7 7 8 9 10 12 15 15 17 18 20 22 21 20 19 20 21 22 23 26 29 31 33 36
30 28 26 24 22 20 20 21 22 24 25 25 26 25 23 22 22 21 20 21 20 19 19 18 18 16 15 14 13 12 11 10 9 8 7 7 6 6 5 4 4 4 3 3 3 2 3 3 2 2 2 2 2 2 2 2 2 2 2 3 3 4 5 5 7 8 8 9 9 13 16 16 17 19 20 21 20 19 19 20 22 23 25 29 32 35 38 41
27 25 24 22 21 21 23 25 26 27 27 25 24 24 23 22 21 21 22 22 20 19 18 17 16 16 14 14 13 11 11 11 10 8 8 7 6 5 4 3 4 4 3 2 3 3 3 3 2 2 2 1 2 2 2 2 2 2 2 3 4 4 4 5 7 8 8 9 9 12 16 17 18 20 20 21 20 19 19 20 22 24 27 31 34 38 43 46
25 24 23 22 23 25 26 27 28 27 26 24 23 23 22 22 22 23 24 22 20 18 17 16 16 15 14 14 13 11 12 12 11 8 7 6 6 5 4 4 4 3 3 3 4 4 3 2 2 2 2 1 2 2 2 2 2 2 2 3 4 4 4 5 6 6 7 9 9 11 15 16 16 18 19 20 20 20 20 20 22 25 29 34 39 45 51 54
25 24 24 24 25 27 27 27 27 25 24 23 23 22 22 22 22 23 23 21 19 17 16 16 16 15 14 14 13 12 13 12 10 8 7 6 6 6 6 5 4 4 4 3 4 4 3 2 2 2 1 2 2 2 2 2 2 2 2 3 3 4 5 5 5 6 6 8 8 10 12 13 14 16 19 21 22 22 22 22 24 29 35 42 52 60 63 64
25 25 25 26 26 27 26 26 25 24 23 23 23 22 22 22 22 22 21 19 17 16 16 16 15 15 14 14 13 13 13 12 10 8 7 7 6 6 5 5 5 4 4 3 4 4 2 2 2 2 2 2 2 2 2 2 2 2 2 2 3 3 4 4 4 5 6 7 8 8 10 11 13 16 20 22 24 25 25 26 29 35 43 53 65 72 73 71
26 26 26 26 26 26 25 25 24 23 23 23 22 22 22 22 21 20 19 17 16 15 15 15 15 14 14 14 14 13 13 12 10 8 7 7 7 6 5 5 5 4 3 4 4 3 2 2 2 2 2 2 2 2 2 2 2 2 2 2 2 3 4 4 4 4 5 6 8 8 9 11 13 16 20 23 26 28 28 29 34 41 51 62 73 78 77 74
27 26 27 27 26 26 25 25 24 23 23 23 22 21 21 20 19 18 17 15 14 14 14 14 15 14 14 14 13 13 12 11 9 7 6 7 6 5 5 5 4 4 4 4 4 3 2 2 2 2 2 2 2 2 2 2 2 2 2 2 2 3 3 4 4 4 5 6 8 10 10 11 12 15 19 23 26 31 33 33 38 47 59 72 80 81 76 71
27 27 27 27 26 26 25 24 24 23 23 22 21 20 19 18 18 17 16 14 14 14 14 13 14 13 13 13 12 12 11 10 9 7 6 6 6 5 5 6 5 4 4 4 4 3 2 2 2 2 2 2 2 1 2 2 2 2 2 2 2 2 3 3 4 4 5 6 7 9 10 12 14 15 18 22 26 33 38 39 43 53 66 78 82 77 69 65
27 27 27 26 26 26 25 24 24 23 22 21 20 19 19 18 17 16 15 14 14 14 14 14 14 13 13 12 12 12 10 9 8 7 6 6 5 5 5 5 5 4 4 4 3 3 2 2 2 2 2 2 2 2 2 2 2 2 2 2 2 2 3 3 3 4 5 7 8 9 10 11 13 14 16 20 27 37 43 45 48 57 68 76 77 70 63 59
27 26 26 25 25 24 24 23 23 22 21 20 19 19 18 18 17 16 16 16 16 16 17 16 15 15 14 13 12 12 10 9 8 7 6 6 5 5 5 5 5 4 4 3 3 3 2 2 2 2 2 2 2 2 2 2 2 2 2 2 3 3 3 3 3 3 5 6 8 10 11 11 12 14 15 20 30 41 46 47 51 60 67 71 70 64 58 55
28 27 26 25 24 23 22 22 21 21 20 20 19 19 19 18 18 18 17 18 18 19 19 18 17 16 14 13 13 12 11 10 8 7 6 6 5 5 4 5 4 4 4 3 3 3 2 2 2 2 2 2 2 2 2 2 2 2 2 2 3 3 3 3 3 3 4 6 7 10 12 13 14 16 17 22 33 43 46 48 52 59 65 67 65 60 55 52
30 29 29 27 26 25 24 23 22 22 21 21 20 20 20 19 19 19 19 19 20 20 20 19 18 17 14 13 12 11 11 9 8 7 6 5 5 4 4 4 4 4 3 3 3 3 2 2 2 2 2 2 2 2 2 2 2 2 2 2 2 2 2 2 3 4 4 5 7 9 12 14 16 17 19 22 29 36 42 47 52 56 62 65 63 59 55 52
31 31 31 30 29 29 28 26 25 24 23 22 22 21 22 22 21 21 21 21 21 21 21 20 19 18 16 13 11 10 9 8 7 7 6 5 5 5 5 4 4 3 3 3 2 2 2 2 2 2 2 2 2 2 2 2 2 2 2 2 2 2 2 2 2 5 6 7 8 10 12 14 15 17 18 20 23 29 37 45 51 55 61 65 64 60 57 53
32 32 32 31 31 31 30 29 28 27 25 25 25 24 24 25 23 23 23 22 22 22 21 20 20 19 17 14 11 9 8 7 7 7 6 5 5 5 5 4 4 3 3 3 2 2 2 2 2 2 2 2 2 2 2 2 2 2 2 2 2 2 2 2 2 4 6 8 9 10 13 14 15 17 18 19 20 24 31 40 48 55 62 68 67 62 59 55
32 32 32 32 31 31 31 30 30 29 27 27 27 25 26 27 25 24 24 23 22 22 21 21 20 19 17 15 11 9 8 7 7 7 6 6 5 5 5 4 3 3 2 2 2 2 2 2 2 2 2 2 2 2 2 2 2 2 2 2 2 2 2 2 2 3 5 8 8 8 11 13 15 17 18 18 18 21 28 37 48 56 64 71 70 65 63 60
32 32 32 31 31 31 30 30 29 29 28 28 27 26 27 27 25 24 24 23 22 22 21 21 20 19 18 15 12 9 8 8 7 7 6 6 6 5 4 4 3 3 2 2 2 2 2 2 2 2 2 2 2 2 2 2 2 2 2 2 2 2 2 2 2 2 4 7 10 10 8 9 12 14 15 17 17 20 27 38 48 55 64 74 74 70 69 65
32 32 32 31 31 30 30 29 29 28 28 27 26 26 26 25 24 24 23 23 22 22 22 21 20 20 18 16 13 10 8 8 7 7 7 7 6 5 4 4 3 2 2 2 2 2 2 3 2 2 2 2 2 2 2 2 2 2 2 2 2 2 2 2 2 2 3 5 10 13 11 9 11 13 14 17 18 18 25 37 46 53 64 77 79 77 76 71
33 33 33 32 31 30 30 29 29 28 27 26 25 25 24 23 23 23 22 22 22 22 22 22 21 20 19 17 14 11 9 8 8 7 7 6 6 5 4 3 3 2 2 2 2 3 3 2 2 2 2 2 2 2 2 2 2 2 2 2 2 2 2 2 2 2 3 3 6 12 15 13 13 15 15 17 18 18 22 33 43 51 63 76 83 83 82 77
34 34 34 33 33 32 31 30 30 29 28 26 25 25 24 22 22 21 20 20 20 21 21 21 21 21 20 18 16 13 10 8 8 7 7 6 5 5 3 3 3 2 2 2 2 3 3 2 2 2 2 2 2 2 2 2 2 2 2 2 2 2 2 3 3 4 5 5 6 11 17 17 15 17 18 17 20 19 20 30 42 51 62 73 82 86 86 84
33 33 33 34 33 33 33 32 31 30 29 28 26 25 25 23 22 21 20 19 18 19 19 20 21 21 20 19 17 15 11 9 8 8 7 6 5 4 3 3 2 2 2 2 2 2 3 3 2 2 2 2 2 2 2 2 2 2 2 2 2 2 2 2 4 5 6 8 9 12 19 22 19 18 19 19 21 22 21 28 40 51 61 69 76 82 87 89
31 31 32 32 32 33 33 32 32 30 29 29 28 27 26 25 24 22 21 20 18 17 17 18 19 20 20 19 17 14 11 9 8 7 6 5 4 4 3 2 2 3 2 3 3 3 2 2 2 2 2 2 2 2 2 2 2 2 2 2 2 2 2 2 3 5 7 8 10 12 17 23 21 18 19 20 21 23 23 27 38 50 60 66 70 75 84 93
27 28 28 28 29 29 30 30 31 30 29 29 29 28 27 26 26 24 23 21 19 17 16 15 16 18 18 18 16 13 10 8 7 6 5 4 4 3 3 3 3 2 3 3 3 3 3 3 3 2 2 2 2 2 2 2 2 2 2 2 2 2 2 2 3 4 7 10 11 10 13 20 20 19 20 20 21 25 25 27 38 50 57 63 66 69 78 92
21 22 23 24 25 26 27 28 28 28 27 28 28 28 28 28 27 26 24 22 20 17 15 14 14 15 16 15 14 12 9 8 6 5 5 4 3 3 3 3 3 3 3 3 3 3 3 3 3 3 2 2 2 2 2 2 2 2 3 2 3 2 2 3 3 3 6 11 13 11 10 15 19 19 20 20 21 26 28 30 38 47 53 59 62 65 72 84
17 18 19 20 22 23 24 25 26 26 26 26 27 27 28 28 27 26 24 21 19 16 14 14 13 13 13 12 12 10 8 6 5 4 4 3 3 3 3 3 3 3 3 3 3 3 3 3 2 3 3 2 3 2 2 3 2 2 3 2 3 3 2 3 3 3 5 9 13 12 8 12 17 18 20 21 22 25 28 31 36 41 48 54 59 62 67 74
16 16 17 18 19 20 22 23 23 24 25 25 26 27 27 27 26 24 22 19 18 15 13 12 12 12 12 11 9 8 6 5 4 4 3 3 3 3 3 3 3 3 3 3 3 3 2 3 3 3 3 3 3 3 2 3 3 3 3 3 3 3 3 4 4 4 4 5 10 13 10 9 13 16 18 20 21 24 25 27 32 36 43 51 56 59 64 68
17 17 17 18 19 19 20 22 22 23 24 25 25 26 25 24 23 21 19 17 15 13 11 11 10 11 10 9 8 6 5 4 3 3 3 3 3 3 3 3 3 3 3 3 3 3 3 3 3 3 3 2 3 3 3 3 3 3 3 3 3 3 3 5 5 5 5 4 7 12 12 10 11 14 17 18 20 23 23 24 28 33 40 49 55 57 63 67
17 18 18 19 20 20 21 22 23 23 24 25 25 24 22 21 19 17 15 13 11 10 10 9 9 9 9 7 6 4 4 3 3 3 3 3 3 3 3 3 3 3 3 3 3 3 3 3 3 3 3 3 3 3 3 3 3 3 3 3 3 3 3 5 5 5 5 5 6 9 11 13 14 15 18 19 20 23 25 24 27 32 38 49 56 59 64 67
18 18 18 18 18 19 20 21 21 22 23 22 21 20 19 17 15 13 11 9 9 8 8 8 7 7 6 5 4 3 3 3 3 3 3 3 3 3 3 3 3 3 3 3 3 3 3 3 3 3 3 3 3 3 3 3 3 3 3 3 3 3 3 4 6 6 6 6 7 7 9 14 16 16 19 22 22 25 27 26 28 32 39 50 59 62 63 66
19 19 18 17 17 17 17 17 17 18 18 18 17 15 14 12 10 9 8 7 7 6 6 6 6 5 5 4 3 3 3 3 3 3 3 3 3 3 3 3 3 3 3 3 3 3 3 3 3 3 3 3 4 3 3 4 3 3 3 3 3 3 3 4 6 7 5 5 7 7 7 13 17 17 20 23 24 27 28 28 30 35 42 52 62 63 62 63
19 19 19 17 17 16 16 16 15 15 14 13 13 11 11 10 8 7 7 6 6 5 5 5 4 4 4 3 3 3 3 3 3 3 3 3 3 3 3 3 3 3 3 3 3 3 3 3 3 4 4 4 4 4 4 4 4 4 4 3 3 3 3 3 5 7 6 5 7 8 8 12 15 16 20 24 24 27 29 29 32 38 43 51 59 62 60 61
19 19 18 17 17 16 15 15 14 13 12 11 11 10 9 9 7 7 6 6 5 5 4 4 4 4 3 4 3 3 3 3 3 3 3 3 3 3 3 3 3 3 3 3 3 4 3 4 4 4 4 4 4 4 4 4 4 4 4 4 3 4 3 3 5 6 6 5 7 9 9 12 14 15 19 24 26 28 32 32 34 39 43 48 53 56 58 59
18 18 17 17 16 15 14 14 13 12 11 11 11 10 9 8 7 7 6 5 5 5 5 4 4 4 4 4 4 3 3 4 3 4 4 3 3 3 3 3 3 3 4 3 4 4 4 4 4 4 4 4 4 4 4 4 4 4 4 4 3 4 3 3 4 6 6 6 7 10 10 12 14 15 18 23 26 29 32 33 35 38 39 43 47 49 53 58
Wind_Speed
20 22 23 23 23 22 22 21 20 20 20 20 19 18 18 17 18 18 19 19 18 18 17 17 18 20 22 24 27 30 32 33 33 31 29 27 26 26 26 27 27 26 25 24 23 23 22 21 20 20 20 20 19 18 18 17 18 18 17 18 17 17 17 17 17 17 18 19 20 20 21 21 22 23 24 25 26 26 27 27 28 29 30 31 33 33 34 34
21 22 22 23 23 24 24 23 23 23 23 22 21 21 21 20 21 21 21 20 19 19 19 20 23 26 30 33 36 36 36 34 33 31 30 29 29 28 28 28 27 26 25 24 23 22 23 23 22 22 21 21 20 20 19 19 20 20 20 20 19 19 19 19 19 19 20 20 20 21 21 22 23 24 25 26 26 27 28 29 30 32 33 34 34 34 34 34
23 23 24 25 26 27 27 27 26 26 25 25 24 24 23 23 23 22 21 20 20 20 22 24 27 30 33 36 37 37 36 34 34 33 32 31 30 29 28 27 26 25 24 24 24 23 24 24 23 23 23 22 22 22 21 22 22 22 21 21 20 20 20 20 19 19 20 20 21 21 22 23 24 26 26 27 27 28 29 31 32 33 33 34 34 33 33 32
27 27 27 28 28 29 29 28 28 28 28 27 26 26 25 24 23 22 21 21 22 22 24 27 30 32 35 37 37 36 35 35 35 34 32 31 29 28 27 27 26 26 25 26 25 25 26 26 25 25 25 24 24 24 23 22 22 22 22 21 21 20 19 19 19 20 20 21 22 22 23 24 25 26 27 27 28 29 30 31 32 32 33 32 32 31 30 29
30 29 29 30 30 30 31 31 31 30 30 29 28 26 25 23 22 22 22 22 23 25 27 29 31 33 35 36 36 35 35 35 34 33 31 30 29 28 27 27 27 27 27 27 27 27 28 28 26 26 26 25 25 24 23 23 22 22 21 21 20 20 20 20 21 22 22 23 23 23 23 24 25 26 26 27 27 28 29 31 31 32 32 31 30 29 29 29
31 31 31 32 32 33 33 33 32 31 30 29 27 26 24 23 22 22 23 24 26 28 29 30 31 33 35 35 35 35 35 34 34 33 32 31 30 29 29 29 29 29 29 29 29 30 29 28 27 27 26 25 24 24 23 22 21 21 21 20 21 21 21 22 22 22 22 22 22 21 22 22 23 24 25 25 26 27 29 30 30 31 30 29 29 28 28 28
33 33 34 34 34 34 34 33 32 31 30 28 26 25 23 23 23 23 24 25 27 28 29 31 32 33 35 35 34 35 34 34 34 33 33 32 31 31 31 31 31 31 31 30 31 30 29 28 27 26 25 24 23 23 22 21 21 20 21 21 22 22 22 22 22 22 22 22 21 20 20 21 22 23 23 24 25 27 28 29 29 29 29 28 28 28 27 27
35 35 35 35 35 34 33 33 32 30 28 27 25 24 24 23 24 24 25 26 27 29 30 31 32 33 35 34 34 35 35 34 34 34 33 33 33 33 33 34 33 32 32 31 31 30 28 27 26 25 24 23 22 22 21 21 21 21 22 22 22 22 22 22 22 22 22 21 20 19 20 20 21 22 23 24 26 27 28 28 29 29 28 28 27 27 27 28
36 36 35 35 34 34 33 32 30 29 27 26 25 24 24 24 24 25 25 27 28 30 31 32 32 33 34 34 35 36 35 35 35 35 35 35 35 35 34 35 34 32 31 31 30 29 28 27 26 24 23 22 21 20 20 21 21 22 22 22 22 23 22 22 22 22 22 22 21 20 21 21 21 22 23 25 26 26 27 28 29 29 28 27 26 26 27 28
36 36 35 35 34 32 31 30 29 28 27 26 25 25 25 24 25 26 27 28 29 30 31 32 32 34 35 35 36 38 37 37 37 37 36 36 36 35 34 34 33 31 30 29 29 28 27 26 25 23 21 21 20 19 20 21 21 21 21 22 22 23 23 23 23 23 23 24 23 22 21 22 22 22 23 25 25 26 27 28 29 29 28 27 27 27 28 30
36 35 35 34 32 31 30 29 28 27 27 26 26 26 25 25 26 27 29 30 31 31 31 32 34 35 36 37 37 38 38 38 37 37 36 36 36 35 34 34 32 31 29 28 27 26 25 24 23 21 21 20 19 20 21 21 21 21 21 22 23 23 23 24 23 24 25 24 24 23 22 22 22 23 24 25 26 27 28 29 29 28 28 28 27 28 29 31
36 35 34 33 31 30 29 29 28 28 28 27 27 27 27 28 29 30 31 32 33 33 33 34 37 38 38 38 38 38 38 38 37 36 36 36 35 34 33 32 31 29 27 26 25 23 23 22 22 22 20 20 20 21 21 20 21 21 22 23 24 24 24 24 24 24 24 24 24 23 23 23 23 23 24 25 27 28 29 29 28 28 28 28 28 29 30 32
35 34 33 32 31 30 30 29 29 28 28 28 29 30 31 32 33 33 34 35 36 36 37 38 39 40 39 37 37 38 38 37 37 36 36 35 34 32 31 30 29 28 26 26 24 23 23 22 22 23 21 21 21 21 21 21 21 22 23 25 25 25 25 25 25 25 25 25 25 24 24 24 24 25 26 26 28 29 29 28 28 28 28 28 28 30 31 33
33 32 32 31 31 30 30 30 29 29 30 30 32 33 35 35 35 36 37 39 39 40 40 41 40 41 38 36 37 38 37 37 37 36 35 34 32 31 29 28 27 26 25 25 24 23 22 21 23 23 21 22 22 21 21 21 22 23 24 25 25 26 27 28 28 27 27 26 26 25 26 27 26 26 27 28 29 29 28 28 27 27 27 28 29 30 32 34
32 32 32 32 31 31 30 30 31 31 32 33 34 35 35 36 37 39 40 41 41 41 42 41 40 39 36 36 38 38 37 37 36 35 34 32 31 29 28 27 26 25 24 24 24 23 22 21 23 23 22 23 22 21 22 22 22 23 23 24 27 29 30 31 30 29 27 27 27 27 27 27 27 27 28 28 28 28 28 27 27 26 27 28 30 31 33 35
32 32 32 32 31 31 31 32 33 33 34 35 35 36 36 37 39 40 41 41 41 40 39 39 38 36 35 37 37 37 37 36 35 34 32 31 30 28 27 26 25 24 24 24 23 22 22 21 23 22 22 23 23 23 22 22 22 23 24 26 29 31 32 31 31 29 28 28 29 28 28 28 28 28 28 28 28 27 27 27 27 27 28 30 31 33 35 37
32 31 30 30 30 31 33 34 35 35 35 36 36 37 37 38 39 40 40 39 38 38 37 36 36 34 34 37 37 35 35 34 33 33 32 31 29 28 26 25 25 25 24 23 22 22 22 22 23 22 22 24 24 24 22 22 23 25 27 29 31 32 32 32 31 31 30 30 30 29 29 29 28 28 27 27 28 28 27 28 29 29 30 31 32 34 36 39
30 30 29 30 31 32 33 34 36 37 37 38 38 38 38 38 38 38 38 37 36 37 36 35 33 33 35 37 34 33 32 32 32 31 30 30 29 28 27 26 25 24 24 23 22 23 23 23 22 22 23 24 25 24 23 24 26 27 29 30 31 32 33 33 32 33 32 31 31 30 29 29 28 28 28 28 29 29 29 30 31 31 31 32 33 35 38 40
30 29 30 30 31 33 34 35 36 38 39 38 38 38 38 37 36 35 36 35 35 35 35 35 32 32 35 34 31 30 29 30 31 30 29 28 28 28 27 26 24 23 23 23 22 22 23 23 22 22 24 25 26 26 26 26 27 29 29 30 31 32 33 33 32 33 32 32 32 30 29 29 28 28 29 29 30 31 31 32 32 31 32 33 35 37 39 41
29 29 30 31 31 33 34 35 36 37 37 37 36 36 36 35 34 33 34 34 34 34 36 35 31 32 33 31 29 29 28 28 30 29 28 27 26 28 27 24 24 22 23 23 21 21 23 23 22 23 24 26 27 27 28 28 28 30 30 31 32 33 33 32 32 32 33 32 32 31 29 29 29 29 30 30 31 32 32 32 31 31 33 34 36 38 40 42
30 30 30 31 32 33 34 35 35 34 35 36 35 34 34 34 33 33 33 33 34 35 35 33 31 31 31 29 27 27 27 27 28 28 27 26 25 25 25 24 23 21 21 22 21 22 23 22 22 24 25 27 28 28 28 29 29 30 31 32 32 33 33 32 31 32 32 32 32 31 29 30 30 30 31 32 33 33 33 32 31 32 34 36 37 39 42 44
30 30 31 31 32 33 33 33 33 32 33 35 35 33 34 33 32 33 31 30 32 34 33 31 30 30 29 28 25 25 27 25 25 27 26 25 24 23 23 24 21 19 20 22 23 23 21 21 24 25 26 28 29 29 29 29 29 30 31 32 32 34 33 33 33 32 32 33 33 31 30 30 31 31 32 33 33 34 33 33 33 34 36 38 40 42 44 46
30 30 31 31 31 31 31 31 31 31 32 34 34 33 33 32 32 32 29 28 30 32 31 30 28 28 27 26 24 25 25 22 22 24 23 24 24 23 24 22 19 19 22 24 24 21 20 23 25 25 27 29 29 29 29 29 29 30 31 32 33 34 34 34 34 34 33 33 33 32 31 31 31 32 32 33 33 34 34 34 34 35 38 40 42 44 46 47
29 29 29 29 29 29 30 30 31 31 31 33 33 32 32 31 30 30 28 27 29 30 29 28 26 26 25 24 23 24 24 21 20 22 22 23 23 23 23 20 18 19 21 22 22 19 21 24 25 26 28 28 28 28 28 28 29 30 32 33 34 34 34 34 35 34 34 34 33 32 31 31 32 32 33 33 33 34 34 35 35 37 39 42 45 46 47 48
28 28 28 28 28 29 30 30 30 31 31 31 31 30 30 30 29 29 28 26 27 27 27 25 24 24 23 22 22 23 22 21 20 21 22 22 21 21 20 18 17 17 18 20 21 20 22 24 25 27 27 27 27 26 27 28 29 31 33 34 35 35 35 35 36 36 35 34 34 33 32 32 33 33 34 34 34 34 34 35 37 39 41 44 47 48 48 49
28 27 27 27 27 28 29 29 29 29 29 29 29 28 28 28 27 28 27 24 25 24 24 23 21 21 21 20 21 20 21 20 19 19 20 20 19 18 18 17 16 16 18 20 20 20 22 24 25 26 26 26 25 25 26 28 29 31 34 35 36 36 35 35 36 37 36 35 34 33 33 33 33 34 34 34 34 34 35 36 38 41 44 47 49 50 51 51
27 27 27 26 27 27 27 27 27 28 28 28 27 26 26 25 25 25 24 23 23 22 22 21 19 19 20 19 19 19 19 18 17 17 18 18 16 15 17 16 15 16 18 19 20 21 22 24 26 27 26 25 24 25 27 28 30 32 34 35 36 36 36 36 37 37 36 36 35 34 34 35 35 35 35 35 35 36 37 38 40 43 46 49 51 52 52 52
26 26 25 25 26 26 25 25 25 25 25 25 25 24 23 23 23 23 21 22 23 21 21 21 18 18 18 18 19 18 17 15 15 16 16 15 14 14 16 15 15 16 17 19 21 21 23 24 25 26 25 23 23 25 27 29 31 32 34 35 36 36 37 37 38 37 37 36 36 36 36 36 37 37 36 37 37 37 38 39 41 44 48 50 52 53 53 53
25 25 24 24 24 24 24 24 23 23 23 23 22 22 21 20 21 20 19 20 22 20 20 20 18 17 17 17 17 16 15 14 15 15 14 13 13 14 15 14 15 16 18 20 21 21 22 23 24 24 24 24 24 26 28 29 32 33 34 35 35 36 38 38 39 38 37 37 37 38 38 37 37 37 37 38 38 38 38 40 42 45 49 51 52 53 53 54
24 24 24 23 23 23 23 22 22 22 21 21 20 19 18 18 18 18 18 19 20 19 19 19 17 16 15 16 15 14 14 14 13 12 12 12 12 13 14 14 15 16 18 19 20 21 21 22 22 22 23 25 25 26 28 29 31 33 34 35 35 36 38 39 39 40 39 39 39 38 38 38 38 38 39 39 39 39 39 40 42 45 48 50 51 53 54 54
22 22 22 22 22 22 22 21 21 21 20 19 19 18 17 17 17 16 16 17 17 17 17 17 16 14 15 15 13 12 12 11 11 11 11 11 11 13 14 14 15 16 17 19 20 20 20 21 21 22 24 25 26 27 29 30 31 33 35 36 36 36 38 39 40 41 42 41 40 39 38 39 39 39 40 41 40 40 40 40 41 44 47 49 51 52 54 55
20 20 20 20 20 20 20 20 20 20 19 19 18 17 15 15 14 13 13 14 15 15 15 14 14 14 15 14 12 11 10 10 10 10 10 10 11 13 14 14 15 17 18 18 19 19 20 21 22 23 24 25 26 27 29 30 32 33 34 35 36 37 39 40 41 42 43 42 41 39 39 39 39 40 40 41 40 40 40 40 41 43 46 48 50 52 54 55
18 18 18 18 18 18 18 18 18 18 17 17 16 15 15 13 11 11 11 11 12 13 12 12 13 13 13 11 11 10 9 9 9 9 10 10 12 13 13 14 16 17 17 18 18 19 20 21 22 23 24 25 27 28 29 31 32 33 34 35 37 39 41 42 43 42 41 42 42 40 39 39 39 39 40 40 40 40 41 41 41 42 45 48 50 52 54 55
16 16 16 16 15 16 16 15 15 15 15 15 14 14 14 11 9 10 10 9 10 10 11 11 11 10 10 10 10 10 9 9 9 9 9 10 11 12 13 14 15 16 17 17 18 20 20 21 22 23 24 25 27 28 30 32 33 34 35 37 39 40 41 43 44 43 40 40 42 41 40 40 39 39 40 40 40 41 42 41 41 42 45 48 50 52 54 56
14 14 14 14 13 13 14 13 13 13 13 12 11 12 12 8 7 8 8 8 8 8 9 9 9 9 9 9 9 8 8 8 8 8 9 10 11 12 13 14 15 16 17 17 18 20 20 21 22 24 25 26 28 30 31 33 35 36 37 38 39 40 42 42 44 45 42 40 41 42 41 39 40 40 40 41 41 42 42 42 41 42 45 48 50 52 54 56
12 12 11 11 11 11 11 11 11 10 11 10 9 10 9 7 6 7 6 6 7 7 7 7 7 7 7 7 7 7 7 7 8 8 9 10 11 12 13 14 15 16 16 17 18 20 21 22 23 24 26 28 29 31 32 33 35 36 37 39 39 40 42 43 44 46 46 42 40 41 43 41 40 40 41 42 42 42 42 43 42 43 45 48 50 52 55 57
10 10 9 8 8 8 8 8 8 8 8 7 7 8 7 6 5 5 5 5 5 5 5 5 5 5 6 5 5 6 6 7 7 8 9 10 11 12 13 14 15 15 16 17 18 20 21 23 24 25 27 29 30 32 33 34 36 37 38 40 40 41 42 43 44 46 48 47 42 40 44 44 42 42 43 43 44 43 42 43 44 44 46 48 50 52 55 57
7 7 6 6 6 5 5 5 5 5 4 4 4 5 4 4 4 3 3 3 3 3 3 3 3 4 4 4 5 5 6 6 7 9 9 10 12 12 13 14 14 14 15 17 18 20 22 23 25 26 27 30 31 32 34 35 37 38 40 41 42 43 44 45 45 46 47 49 46 41 42 45 44 44 44 44 44 44 43 43 44 45 46 48 49 51 55 57
4 4 4 3 3 2 2 2 2 2 1 1 2 2 2 2 2 2 3 3 3 3 3 3 3 4 4 5 5 6 6 7 8 9 10 11 12 12 13 13 14 14 16 17 19 20 22 23 25 27 28 30 31 33 34 36 38 39 41 42 43 44 46 46 47 47 47 49 49 44 40 43 45 45 45 46 46 46 45 44 45 46 47 48 50 51 54 57
4 4 4 4 4 3 3 2 2 2 2 2 1 1 2 2 2 2 3 3 4 4 4 4 4 4 5 6 6 7 8 8 9 10 11 12 12 12 12 13 14 15 16 17 19 21 23 24 26 27 29 30 32 33 35 36 38 39 41 43 44 45 46 47 47 47 47 48 50 47 41 40 45 45 46 47 46 46 47 46 45 47 47 48 50 52 54 57
6 6 6 7 7 7 7 6 6 5 5 5 5 5 5 4 5 5 5 5 5 6 6 6 6 6 6 7 8 8 9 9 10 11 12 12 12 12 13 13 15 16 17 18 20 21 23 25 26 27 29 31 32 33 35 37 38 40 41 43 44 45 46 48 48 47 48 47 48 49 43 39 43 46 46 47 46 46 48 47 46 47 47 49 50 52 54 57
8 8 9 9 9 10 10 9 9 9 9 8 8 8 8 8 8 8 8 8 8 8 8 8 8 8 8 9 9 9 10 10 11 12 12 12 12 13 13 14 15 16 18 20 21 22 24 25 27 28 30 31 32 33 35 37 39 40 42 43 44 45 45 47 48 48 48 47 47 50 46 41 43 46 46 47 47 46 47 47 46 47 48 49 51 52 54 57
8 9 9 10 11 11 11 11 12 12 12 12 11 11 11 10 10 10 10 10 10 10 10 10 10 10 10 10 10 10 11 12 12 12 12 12 12 14 15 15 16 18 19 21 22 24 25 26 27 29 31 31 32 34 36 38 40 41 42 44 44 44 45 46 47 48 49 46 45 49 49 45 44 46 46 47 47 46 47 48 47 47 48 49 51 52 55 57
8 8 9 10 11 12 12 12 13 13 14 13 13 13 13 12 12 12 13 13 13 12 12 12 12 11 11 11 11 12 12 13 13 12 13 13 14 15 16 17 18 19 21 22 24 25 27 28 29 30 31 31 32 34 36 38 41 42 42 44 44 44 44 45 46 48 49 48 45 48 51 48 46 46 46 47 47 45 46 47 47 47 48 49 51 52 54 56
7 8 8 9 10 11 11 12 12 13 13 13 13 13 13 13 13 13 14 14 14 14 14 14 13 13 13 13 13 13 13 13 13 13 14 14 15 16 17 18 19 21 23 24 25 27 29 30 31 33 34 35 35 36 37 38 41 42 43 44 44 45 45 44 46 48 50 50 47 47 51 51 48 47 45 46 46 45 45 46 46 46 47 48 50 52 54 56
8 8 9 9 9 10 10 11 11 12 12 12 12 12 12 12 13 13 14 14 14 14 15 14 14 14 14 14 14 14 14 14 14 15 15 16 17 18 19 20 21 22 24 25 26 28 29 30 32 33 36 37 37 38 40 40 42 43 44 45 45 46 46 45 46 48 50 52 49 47 50 52 50 48 45 45 45 44 45 45 45 45 46 47 49 51 53 57
8 9 9 9 10 10 10 10 11 11 11 11 12 12 12 12 13 14 14 15 14 15 15 15 15 15 15 15 15 15 15 15 15 16 17 18 18 19 20 22 23 24 26 27 28 29 30 31 32 33 35 37 38 38 40 41 43 45 45 46 46 47 47 47 47 49 51 52 50 49 50 51 50 48 45 45 45 43 44 45 45 45 46 47 49 51 54 57
10 10 10 10 10 11 11 11 11 11 12 12 12 12 13 13 14 14 14 15 15 15 15 16 16 16 16 16 16 16 16 16 17 18 19 20 20 21 23 24 25 26 27 28 29 30 31 32 33 34 35 37 39 39 40 42 44 46 47 47 47 48 49 49 48 49 51 51 50 51 51 49 49 48 44 44 45 44 44 45 45 45 46 47 49 52 54 57
12 12 11 11 12 12 12 12 13 13 13 13 13 14 14 14 15 15 15 16 16 15 16 16 16 16 16 16 17 17 18 18 19 20 21 22 23 23 25 26 27 28 29 30 31 32 32 33 34 34 35 37 40 41 41 42 43 46 47 47 48 49 51 51 49 49 52 52 50 52 52 48 47 47 44 42 43 43 43 45 44 44 45 47 49 52 54 57
15 15 14 14 14 14 14 14 14 15 15 15 15 16 16 16 16 16 16 17 17 16 16 17 17 17 17 18 19 19 20 20 21 22 23 24 25 25 26 28 29 30 31 32 33 33 34 35 35 35 35 37 40 41 42 43 44 45 47 47 48 49 51 52 51 50 52 53 51 51 52 49 47 47 43 41 42 42 42 43 43 43 45 46 48 51 53 55
18 18 18 17 17 17 17 17 17 17 18 18 18 18 18 18 18 18 18 18 18 18 18 18 19 19 20 20 21 22 22 23 24 25 26 26 27 28 29 30 31 32 33 34 34 35 36 37 37 38 37 38 40 42 42 44 44 46 47 48 48 48 50 52 51 51 53 53 51 51 51 49 48 48 44 41 40 40 41 42 42 42 44 46 47 49 51 54
22 22 21 21 21 21 21 21 21 21 21 21 21 21 21 21 20 20 20 20 21 21 21 21 22 22 23 23 24 24 25 26 27 27 28 29 29 30 31 32 33 34 34 35 36 37 38 39 40 41 40 40 41 43 44 44 44 46 47 48 48 48 48 50 51 51 52 52 51 50 50 49 48 48 46 42 39 38 39 41 41 41 42 44 46 48 50 53
Wind_Direction
133 135 135 135 136 139 141 142 139 135 132 130 127 124 121 119 115 108 101 96 94 94 95 97 98 99 101 104 106 108 111 115 118 121 123 123 122 120 119 116 113 111 110 109 109 108 107 105 104 101 96 91 87 83 80 75 68 63 56 50 44 38 33 28 23 17 12 7 3 360 356 352 349 347 346 344 342 339 337 334 332 332 332 334 336 336 335 336
138 137 132 128 126 127 129 129 129 128 127 125 122 120 118 114 108 103 100 101 103 105 105 103 99 97 98 99 102 104 107 111 114 116 116 116 115 114 113 112 110 110 110 110 108 107 107 104 100 95 89 85 81 76 72 67 61 57 52 46 40 35 30 26 21 15 11 6 2 358 354 351 349 348 346 344 341 338 336 334 334 335 337 338 337 337 338 339
130 129 125 122 122 123 124 125 125 124 123 121 119 117 113 109 106 106 106 108 108 106 103 98 95 95 96 98 100 103 105 108 110 109 110 111 110 110 110 109 109 110 110 109 108 106 102 96 92 86 82 79 75 71 66 61 57 53 48 43 38 33 29 25 20 15 10 5 1 358 355 352 350 348 346 343 340 338 336 336 337 338 338 338 337 337 338 336
122 123 122 121 121 121 122 122 122 121 119 118 115 112 110 109 110 111 110 108 105 101 97 95 95 96 97 99 100 103 105 107 107 106 107 108 107 108 109 110 111 111 110 107 105 100 93 88 85 81 77 74 70 67 63 59 55 50 46 41 37 33 30 26 21 17 11 6 3 359 356 354 351 348 345 342 340 337 337 338 338 337 336 336 336 335 334 334
120 121 120 119 119 120 120 119 119 117 115 113 111 111 111 112 112 111 107 104 102 99 97 96 98 99 101 102 104 105 105 105 105 106 106 106 108 110 112 113 111 108 105 101 97 92 86 83 80 77 73 71 68 65 62 58 54 50 46 42 38 34 31 27 23 19 13 8 4 0 357 354 351 347 344 340 338 337 338 338 337 335 334 333 333 334 335 338
118 118 117 117 117 117 117 116 115 113 112 111 112 113 113 113 110 107 105 103 101 100 100 101 102 103 104 104 105 106 105 107 108 109 109 110 112 113 111 108 104 100 97 94 90 86 83 80 77 74 71 69 67 64 62 59 55 51 47 43 38 34 30 27 24 20 15 10 5 2 359 355 351 346 342 339 338 338 337 337 335 333 331 332 334 337 339 340
114 114 115 115 115 115 114 112 111 111 112 113 114 113 112 111 109 106 104 102 102 102 103 103 104 105 106 106 108 109 108 110 112 112 112 112 111 108 104 100 97 94 92 89 86 83 81 79 76 73 71 69 66 64 61 59 54 50 45 41 37 33 29 26 23 20 17 13 8 5 2 357 351 345 341 339 338 337 337 336 334 332 332 335 339 340 341 340
111 112 112 113 112 111 111 110 111 112 113 113 113 112 112 109 107 106 104 103 103 104 105 106 107 108 109 109 112 112 111 111 111 111 110 108 105 102 98 95 93 91 89 86 84 83 82 79 77 74 71 69 66 62 59 56 51 46 42 38 35 32 29 25 22 20 18 15 11 8 4 358 351 345 342 340 339 337 336 336 334 334 336 340 342 341 340 339
110 110 110 110 109 109 110 111 112 112 112 113 113 111 109 107 105 105 105 106 106 106 108 109 110 111 112 113 112 110 110 110 109 107 106 104 101 98 95 92 90 89 87 86 85 83 82 79 77 74 71 68 64 59 54 50 46 42 39 36 33 31 28 25 22 19 18 16 14 10 5 359 352 346 343 341 339 336 337 337 337 337 340 342 342 342 340 339
108 108 108 107 108 109 110 111 112 113 113 112 110 108 106 105 106 107 108 108 109 109 110 111 112 113 112 111 109 108 107 107 105 103 102 101 98 96 94 91 89 88 87 86 84 83 82 80 78 75 71 66 61 55 49 45 42 40 37 34 33 31 27 24 21 19 18 16 15 10 4 359 353 347 343 341 339 338 340 340 340 340 341 342 342 342 341 339
106 106 107 108 109 110 111 112 112 112 111 109 107 106 106 107 109 110 111 111 111 110 111 112 111 110 108 106 105 104 103 102 101 100 99 98 96 95 93 91 90 88 86 85 83 82 81 80 78 74 68 63 57 52 48 43 39 37 35 34 33 31 27 25 21 19 19 16 13 9 5 359 353 348 344 343 342 341 342 343 342 342 342 342 343 343 342 340
106 107 108 109 110 110 110 110 109 108 107 106 106 107 108 109 110 111 111 111 111 111 111 111 108 107 104 102 101 100 99 99 98 98 97 95 95 94 92 91 89 88 86 85 84 82 80 77 75 71 64 60 55 50 47 42 38 35 34 34 33 30 28 26 24 22 19 16 13 9 6 2 355 351 348 347 345 343 344 344 344 344 342 342 344 344 343 343
107 108 109 109 109 109 108 107 106 106 105 105 106 107 108 108 109 109 110 110 110 110 110 109 106 103 101 100 100 99 98 97 97 97 95 93 92 91 90 90 89 89 88 86 83 79 77 74 71 68 61 56 53 49 45 41 38 35 33 33 32 30 28 26 25 22 19 16 13 9 7 5 359 354 351 350 348 346 346 345 345 345 342 343 346 345 345 346
108 108 108 108 108 108 107 106 105 104 104 105 106 106 107 107 109 110 111 111 110 110 108 105 102 99 99 101 99 98 97 97 96 94 92 91 89 88 87 87 87 87 86 84 82 77 75 71 68 66 60 54 51 47 43 40 38 35 33 32 31 29 28 25 23 21 18 16 14 10 8 6 2 357 354 353 350 348 348 346 346 344 343 346 348 346 347 348
108 108 108 108 107 107 107 105 104 103 104 104 105 106 108 110 112 112 112 111 109 107 104 102 99 99 102 102 99 98 97 95 93 92 91 89 88 87 85 84 83 83 81 80 79 76 71 67 66 65 59 55 50 45 42 38 36 35 33 32 30 28 26 24 22 19 18 16 14 12 9 7 4 360 357 355 352 350 349 347 345 345 346 349 349 348 349 349
108 107 107 108 108 108 107 105 104 104 104 105 107 109 110 112 113 112 110 107 104 102 101 101 100 102 105 102 99 98 96 95 94 93 91 89 87 85 83 82 81 79 77 75 74 73 69 65 64 63 58 55 50 45 42 38 37 35 33 31 29 27 24 22 20 19 17 15 14 13 10 7 4 2 358 355 353 351 350 348 347 348 350 352 351 350 350 351
106 106 106 107 107 107 107 106 106 106 107 108 110 112 113 113 110 107 104 102 102 101 101 101 102 106 106 101 98 96 96 96 95 93 92 90 87 84 81 79 77 76 73 72 72 71 68 63 62 60 57 54 50 45 42 38 36 34 31 30 28 26 23 21 19 17 16 15 15 13 10 7 4 2 359 357 355 353 352 351 352 353 354 354 352 352 353 352
104 104 105 106 107 107 107 107 108 109 110 111 113 113 112 108 105 103 103 103 103 102 102 102 105 107 102 97 97 97 97 96 93 91 90 89 87 84 80 76 73 72 71 70 68 68 66 62 59 58 56 53 49 45 40 37 35 33 31 29 27 26 22 19 17 15 15 14 14 13 10 6 3 1 360 359 357 356 356 356 356 356 356 355 354 354 354 352
104 105 106 107 109 109 109 110 111 112 113 113 112 109 106 104 103 103 104 103 103 104 104 104 105 103 98 98 99 98 96 94 92 90 88 86 85 83 79 75 73 71 70 66 62 63 64 61 56 55 53 51 48 43 38 35 32 31 29 28 27 25 22 19 17 15 14 14 12 12 10 6 3 2 1 0 359 359 359 358 357 357 357 356 356 356 353 352
105 106 107 109 110 111 112 112 113 114 114 112 108 106 105 105 104 104 103 104 105 106 105 104 105 102 99 100 98 96 95 93 91 89 86 83 82 81 79 76 73 70 67 65 59 57 60 57 52 50 49 48 46 41 36 32 30 28 27 26 25 24 22 19 17 15 13 13 12 11 9 6 5 3 3 2 0 360 360 359 357 357 357 357 357 355 353 352
106 107 109 110 112 113 114 115 115 114 112 108 106 106 106 105 105 105 104 105 107 106 105 106 105 102 101 100 97 97 94 90 89 88 84 81 78 79 80 76 71 67 66 65 57 51 53 53 48 46 45 44 43 39 34 30 27 26 25 24 24 23 21 18 18 16 13 11 11 10 8 6 5 3 3 2 1 0 359 358 357 357 358 357 356 355 354 353
106 108 110 112 114 115 116 115 114 112 110 108 108 107 106 105 105 104 104 107 108 107 107 107 105 103 102 100 98 95 89 86 86 85 85 83 77 75 74 71 67 64 61 57 52 48 47 47 44 42 41 40 39 36 32 29 25 24 24 23 22 21 19 17 17 15 13 11 10 9 7 6 5 4 4 2 0 359 357 356 357 357 358 357 357 356 355 353
107 109 111 114 116 116 115 114 113 112 112 110 109 107 105 105 106 105 108 111 110 108 107 106 105 104 102 100 98 92 86 84 82 82 82 80 75 69 66 64 60 58 55 50 48 44 38 40 41 39 38 37 36 33 29 26 23 22 22 22 21 20 17 16 15 14 12 10 9 8 7 6 5 5 5 2 0 358 357 356 357 358 359 359 359 359 357 353
108 111 113 114 116 116 115 115 114 114 112 109 107 107 107 108 109 111 114 115 111 108 106 105 105 103 100 99 96 91 88 83 76 75 73 70 69 66 63 59 53 54 54 51 46 38 32 37 38 37 36 34 32 30 26 23 21 20 20 20 20 18 15 15 14 12 11 9 8 7 6 5 5 6 5 2 0 359 358 357 358 0 1 1 1 360 356 353
110 112 113 114 115 115 115 114 113 112 110 108 107 109 110 112 114 114 114 113 109 106 105 104 102 99 97 94 91 88 84 77 70 69 68 65 64 64 63 58 53 51 51 50 42 32 31 35 36 35 35 32 29 26 24 22 19 18 18 17 17 16 13 12 11 10 9 8 7 5 4 4 6 7 6 2 360 359 359 359 1 3 3 3 2 359 355 353
112 113 113 114 114 113 112 111 111 110 109 109 109 111 112 114 116 114 113 111 106 104 102 99 98 96 93 89 86 83 80 75 68 68 69 65 62 64 63 57 52 46 44 45 39 30 30 33 34 34 32 29 25 22 22 20 17 17 17 15 15 13 11 10 9 8 7 6 5 4 4 5 7 8 5 2 360 359 360 360 1 3 4 4 2 358 356 354
112 113 112 112 111 110 110 110 110 110 110 111 112 114 115 116 116 113 113 110 103 99 96 94 93 92 88 85 82 78 75 73 69 67 66 65 61 60 60 52 46 43 40 40 36 29 29 32 32 30 28 26 20 18 20 18 15 15 14 13 12 10 9 8 7 6 6 4 4 5 5 5 7 8 5 2 1 0 359 359 1 3 5 5 1 358 356 355
112 112 112 111 110 110 110 111 111 111 111 112 113 115 117 117 114 111 110 105 100 96 92 90 86 83 83 81 79 75 71 68 66 64 62 60 57 55 54 47 40 38 35 34 32 29 29 30 30 27 24 21 16 16 17 15 14 13 12 11 9 7 6 6 5 5 5 4 4 5 6 6 6 6 5 2 1 1 359 359 1 4 5 4 1 358 357 356
113 113 112 112 112 112 112 112 112 111 111 112 114 115 115 114 111 108 106 101 97 94 89 86 81 77 77 76 73 72 68 61 57 58 58 54 51 51 49 42 36 33 31 31 30 29 29 29 27 24 20 17 14 13 14 13 12 11 10 8 7 5 4 3 3 3 4 4 5 5 5 5 5 4 4 4 2 1 0 360 1 3 4 2 360 358 357 356
113 113 113 113 113 114 114 113 113 112 112 112 113 113 112 110 106 105 103 97 93 88 83 80 77 73 71 70 67 65 61 56 51 50 51 48 47 49 45 37 32 29 27 28 28 28 28 27 24 21 18 16 13 11 11 10 9 9 8 6 5 3 2 2 1 1 2 4 6 5 3 3 4 4 4 4 3 1 0 0 1 2 2 -0 359 358 357 356
113 113 113 113 114 114 114 113 113 113 112 113 113 111 110 108 105 103 101 96 89 83 78 75 73 69 65 63 60 57 54 51 46 42 44 43 43 46 40 31 27 24 24 25 26 26 26 24 21 17 16 14 10 9 8 7 7 7 6 4 2 1 0 1 360 359 1 3 4 3 3 3 3 4 4 3 3 1 360 359 360 1 360 359 358 358 357 356
112 112 112 114 115 114 114 113 114 114 115 115 115 113 109 105 104 101 97 93 86 80 75 71 67 62 60 58 55 54 51 47 44 40 39 37 38 39 32 24 22 20 20 22 22 23 23 21 17 14 13 11 8 7 6 4 5 4 3 1 359 358 359 359 359 360 360 1 2 2 2 3 3 4 4 2 0 360 359 358 359 359 358 358 358 358 357 356
112 112 113 114 114 113 113 114 115 115 118 118 117 118 112 105 106 102 95 91 85 80 75 68 63 59 58 57 53 51 46 41 39 35 33 32 34 33 23 18 18 16 17 17 17 19 19 18 15 11 10 7 5 4 3 2 2 1 359 358 357 357 357 357 358 360 0 359 359 0 2 2 2 2 2 1 359 359 359 358 357 357 357 358 358 357 357 356
114 114 114 114 113 112 113 114 115 117 120 118 120 122 112 106 112 106 97 92 85 79 74 67 63 60 57 54 50 46 40 36 34 32 30 30 31 25 14 13 14 13 13 13 14 14 13 14 12 8 6 4 1 1 0 360 360 359 357 355 356 356 356 356 356 357 360 359 356 357 1 1 -0 1 1 359 359 359 358 357 356 356 356 357 358 357 357 356
116 116 116 115 115 114 114 115 116 119 121 120 126 124 111 110 118 107 97 91 82 74 69 63 59 57 53 51 46 41 37 33 30 28 24 23 21 14 8 9 11 10 9 8 10 10 9 9 7 3 1 360 358 358 358 357 357 356 354 353 353 354 354 354 354 354 356 359 357 354 358 359 358 359 359 357 359 359 357 356 356 355 356 357 357 357 356 356
120 118 117 117 116 115 116 116 117 121 121 124 131 123 114 122 121 106 98 88 78 70 63 56 52 49 47 44 38 33 30 24 20 20 17 14 9 4 4 5 6 7 5 4 5 6 4 4 3 359 358 356 355 355 355 355 354 353 351 351 351 351 352 353 353 352 351 356 358 353 352 356 357 357 357 356 358 359 357 356 356 355 356 357 357 357 356 355
126 123 121 122 119 117 116 113 113 118 118 122 126 119 120 127 117 107 101 85 72 66 58 48 42 39 36 30 23 20 19 14 10 10 7 2 358 358 0 1 1 1 0 360 1 2 1 360 358 356 354 353 352 351 351 351 351 350 349 349 348 349 350 351 351 351 349 351 356 355 350 352 356 356 356 357 357 358 357 355 355 355 355 356 356 356 356 355
137 134 133 135 132 129 125 115 110 112 108 113 118 113 116 116 105 98 89 73 59 52 44 34 27 22 16 7 1 1 1 358 358 358 355 351 351 353 355 356 357 356 357 357 357 358 357 355 355 353 351 350 350 349 349 348 348 347 347 347 347 347 349 350 349 349 348 346 351 355 351 350 354 355 355 356 356 356 357 356 355 355 354 355 355 354 354 354
168 165 164 169 168 164 155 126 101 103 103 112 111 97 84 85 78 66 55 36 22 13 1 358 358 353 347 340 339 341 339 340 344 345 344 343 344 347 349 350 351 351 353 354 353 353 353 351 351 350 348 347 347 347 346 346 345 345 345 345 347 347 347 348 347 346 347 345 346 353 354 350 352 354 353 356 355 353 356 357 355 354 353 353 354 353 353 353
222 225 236 241 244 255 258 268 302 318 307 293 306 333 342 357 359 2 5 358 353 346 335 333 330 326 324 321 323 326 326 328 332 334 337 338 339 341 343 344 345 347 348 349 349 348 348 348 348 347 346 345 345 345 344 343 343 343 344 345 346 346 346 346 346 344 344 345 345 349 356 352 350 352 353 354 354 351 353 356 354 353 352 352 352 352 352 352
249 253 261 263 265 273 274 277 289 300 302 299 297 302 313 321 325 329 332 333 334 330 325 322 316 315 314 313 315 318 320 322 324 328 331 333 334 335 337 338 340 342 343 344 345 344 344 345 344 344 344 343 343 343 342 341 342 342 343 344 345 345 345 344 344 342 341 344 344 345 352 353 349 351 353 353 353 351 351 354 353 352 351 351 352 352 352 352
257 260 266 270 272 276 277 280 286 291 297 299 296 296 301 309 315 320 321 322 323 322 320 318 313 311 310 310 311 313 316 319 322 325 327 327 329 330 331 333 336 338 338 339 340 340 341 341 340 340 341 341 341 340 340 340 341 342 343 344 344 344 343 342 341 340 339 342 344 343 347 351 350 351 352 351 352 350 349 351 351 351 351 351 351 351 352 353
263 267 270 271 274 275 277 281 285 289 294 297 297 296 298 303 309 315 317 318 318 317 317 315 312 309 308 308 308 309 313 317 319 322 322 322 325 327 329 329 331 333 334 334 336 336 336 337 337 337 338 340 339 338 340 340 340 341 341 342 342 341 341 340 338 338 337 340 344 341 342 348 350 351 351 350 350 349 348 349 349 349 350 350 351 351 351 352
270 274 274 274 274 274 276 280 284 289 292 294 295 297 299 302 307 312 315 315 315 314 314 312 309 307 307 307 307 309 312 314 316 317 318 318 320 324 327 326 327 329 330 331 331 332 333 333 334 334 334 336 337 336 338 338 337 338 339 339 340 339 339 339 336 336 336 339 343 340 340 346 350 350 350 349 350 349 346 347 347 347 349 350 351 351 351 351
272 276 279 279 277 275 276 280 283 287 291 292 293 297 299 301 304 309 311 312 312 312 311 309 307 305 305 305 306 309 310 311 312 314 315 316 316 318 322 323 324 326 326 327 328 329 331 331 332 333 332 334 335 334 335 335 334 336 338 338 338 338 337 336 335 335 335 338 342 340 339 344 348 349 350 348 348 347 345 346 346 346 348 349 350 351 351 351
270 274 278 280 281 280 280 282 284 287 289 289 290 293 295 298 301 304 305 306 307 307 307 306 305 303 302 303 304 306 307 307 309 311 312 314 315 315 317 318 320 322 323 325 325 327 329 329 331 333 332 332 334 333 333 334 333 334 336 336 336 336 335 334 334 335 335 337 340 340 339 342 345 347 349 348 348 346 344 346 346 345 348 349 350 351 351 351
264 268 273 277 279 282 282 283 284 286 286 286 286 287 289 291 294 297 298 299 300 301 301 300 300 300 299 300 301 302 303 304 305 308 310 311 313 313 313 314 316 318 320 322 323 324 326 327 329 331 331 330 330 331 331 332 332 332 333 334 334 334 334 333 333 335 334 336 339 340 341 342 343 346 348 347 348 346 343 345 346 345 348 349 350 351 351 352
260 263 267 271 273 276 278 278 279 281 282 283 283 284 285 286 288 290 291 293 294 294 295 295 295 295 296 296 297 298 300 301 302 305 307 308 309 310 311 312 314 316 317 319 320 321 322 324 326 328 330 328 327 328 329 330 330 329 330 332 333 332 332 331 333 334 334 336 339 339 341 342 341 344 348 347 347 345 342 345 346 346 348 349 350 351 352 352
260 262 262 265 267 269 271 272 273 275 276 277 279 280 281 283 284 286 287 288 289 289 290 290 290 291 292 292 293 295 297 299 300 302 304 305 306 307 308 310 312 314 315 316 317 318 319 321 322 324 326 326 325 325 326 327 327 326 327 329 330 330 329 329 331 333 333 335 338 338 340 341 340 343 347 347 347 344 341 343 346 345 347 349 350 351 351 351
261 263 263 264 264 264 266 267 268 269 270 271 273 275 277 278 280 281 282 284 285 285 285 286 286 287 288 289 290 291 293 295 296 298 299 301 303 304 306 308 309 311 312 313 314 315 316 317 318 319 322 323 322 322 323 324 324 324 324 325 327 327 327 328 329 331 332 334 337 337 339 341 340 342 346 347 347 344 341 342 345 345 346 348 349 350 350 351
263 263 264 265 265 265 265 265 264 266 267 268 270 271 273 273 274 276 277 278 279 280 281 282 282 283 284 285 287 288 289 291 293 294 296 297 300 302 304 305 307 308 310 311 312 313 314 314 315 316 318 319 318 319 320 321 322 322 321 322 323 325 326 326 327 330 332 333 335 337 338 339 339 340 344 347 347 344 339 341 344 345 345 347 347 348 349 350
265 266 265 265 265 266 266 266 265 265 266 267 268 269 270 270 271 272 273 274 275 276 277 278 279 280 281 283 284 286 287 289 290 292 294 296 298 300 302 303 305 306 308 309 310 311 311 312 313 314 315 316 315 315 317 318 319 318 318 318 320 323 325 325 326 329 331 332 334 336 338 338 338 340 342 345 347 344 338 339 343 344 345 345 346 347 349 349